• In Hungary
  • List of Countries
  • For 7 days
  • Water Temperature
  • Satellite Maps
  • Weather Map
  • News
  • Weather Widgets
  • user-avatar
    Login

    Hourly Weather Mstowo

    Today, 12 December, Tuesday

    Time Temperature Precipitation Wind Pressure Humidity
    00:00 +5°C° 0 mm 6 mps 731 mmHg 86%
    01:00 +7°C° 0 mm 6 mps 731 mmHg 86%
    02:00 +7°C° 0 mm 6 mps 732 mmHg 85%
    03:00 +7°C° 0 mm 6 mps 732 mmHg 84%
    04:00 +8°C° 0 mm 7 mps 732 mmHg 83%
    05:00 +7°C° 0 mm 6 mps 733 mmHg 83%
    06:00 +7°C° 0 mm 6 mps 733 mmHg 84%
    07:00 +7°C° 0 mm 6 mps 734 mmHg 85%
    08:00 +7°C° 0 mm 6 mps 734 mmHg 83%
    09:00 +7°C° 0 mm 6 mps 735 mmHg 81%
    10:00 +5°C° 0 mm 6 mps 736 mmHg 79%
    11:00 +6°C° 0 mm 7 mps 736 mmHg 73%
    12:00 +6°C° 0 mm 8 mps 737 mmHg 66%
    13:00 +6°C° 0 mm 9 mps 738 mmHg 60%
    14:00 +5°C° 0 mm 9 mps 739 mmHg 60%
    15:00 +3°C° 0 mm 9 mps 740 mmHg 61%
    16:00 +2°C° 0 mm 8 mps 741 mmHg 61%
    17:00 +2°C° 0 mm 9 mps 742 mmHg 61%
    18:00 +1°C° 0 mm 9 mps 743 mmHg 61%
    19:00 +1°C° 0 mm 9 mps 744 mmHg 61%
    20:00 0°C° 0 mm 9 mps 744 mmHg 63%
    21:00 0°C° 0 mm 9 mps 745 mmHg 64%
    22:00 0°C° 0 mm 9 mps 746 mmHg 65%
    23:00 0°C° 0 mm 8 mps 747 mmHg 68%

    Tomorrow, 13 December, Wednesday

    Time Temperature Precipitation Wind Pressure Humidity
    00:00 -1°C° 0 mm 7 mps 747 mmHg 71%
    01:00 -1°C° 0 mm 7 mps 748 mmHg 75%
    02:00 -1°C° 0 mm 6 mps 748 mmHg 77%
    03:00 -1°C° 0 mm 5 mps 749 mmHg 80%
    04:00 -1°C° 0 mm 4 mps 749 mmHg 82%
    05:00 -2°C° 0 mm 4 mps 750 mmHg 85%
    06:00 -2°C° 0 mm 4 mps 750 mmHg 88%
    07:00 -1°C° 0 mm 3 mps 750 mmHg 91%
    08:00 -2°C° 0 mm 4 mps 751 mmHg 88%
    09:00 -1°C° 0 mm 4 mps 751 mmHg 86%
    10:00 -1°C° 0 mm 4 mps 751 mmHg 84%
    11:00 0°C° 0 mm 4 mps 750 mmHg 79%
    12:00 0°C° 0 mm 4 mps 750 mmHg 75%
    13:00 +1°C° 0 mm 4 mps 749 mmHg 71%
    14:00 0°C° 0 mm 4 mps 749 mmHg 73%
    15:00 -1°C° 0 mm 4 mps 748 mmHg 75%
    16:00 -1°C° 0 mm 4 mps 748 mmHg 77%
    17:00 -1°C° 0 mm 4 mps 747 mmHg 76%
    18:00 -1°C° 0 mm 5 mps 747 mmHg 75%
    19:00 -2°C° 0 mm 6 mps 746 mmHg 74%
    20:00 -2°C° 0 mm 6 mps 745 mmHg 72%
    21:00 -2°C° 0 mm 6 mps 744 mmHg 70%
    22:00 -2°C° 0 mm 6 mps 743 mmHg 69%
    23:00 -2°C° 0 mm 7 mps 742 mmHg 66%

    Day after tomorrow, 14 December, Thursday

    Time Temperature Precipitation Wind Pressure Humidity
    00:00 -2°C° 0 mm 7 mps 742 mmHg 63%
    01:00 -1°C° 0 mm 7 mps 741 mmHg 61%
    02:00 -1°C° 0.1 mm 7 mps 739 mmHg 62%
    03:00 -1°C° 0.1 mm 8 mps 738 mmHg 64%
    04:00 0°C° 0.1 mm 8 mps 737 mmHg 66%
    05:00 0°C° 0.3 mm 8 mps 737 mmHg 66%
    06:00 0°C° 0.3 mm 8 mps 736 mmHg 66%
    07:00 +1°C° 0.3 mm 8 mps 735 mmHg 66%
    08:00 +1°C° 0.2 mm 8 mps 735 mmHg 69%
    09:00 +1°C° 0.2 mm 8 mps 735 mmHg 72%
    10:00 +2°C° 0.2 mm 8 mps 735 mmHg 75%
    11:00 +2°C° 0.1 mm 8 mps 735 mmHg 73%
    12:00 +4°C° 0.1 mm 8 mps 734 mmHg 71%
    13:00 +3°C° 0.1 mm 9 mps 734 mmHg 69%
    14:00 +2°C° 0 mm 8 mps 734 mmHg 65%
    15:00 +1°C° 0 mm 8 mps 735 mmHg 62%
    16:00 0°C° 0 mm 8 mps 735 mmHg 58%
    17:00 0°C° 0 mm 8 mps 736 mmHg 60%
    18:00 0°C° 0 mm 7 mps 736 mmHg 61%
    19:00 -1°C° 0 mm 7 mps 736 mmHg 63%
    20:00 -1°C° 0 mm 6 mps 737 mmHg 64%
    21:00 -2°C° 0 mm 6 mps 737 mmHg 64%
    22:00 -1°C° 0 mm 5 mps 737 mmHg 65%
    23:00 -1°C° 0 mm 4 mps 736 mmHg 67%

    15 December, Friday

    Time Temperature Precipitation Wind Pressure Humidity
    00:00 -1°C° 0 mm 4 mps 736 mmHg 69%
    01:00 0°C° 0 mm 3 mps 735 mmHg 71%
    02:00 -1°C° 0.9 mm 4 mps 734 mmHg 75%
    03:00 0°C° 0.9 mm 5 mps 733 mmHg 79%
    04:00 0°C° 0.9 mm 5 mps 732 mmHg 83%
    05:00 +1°C° 1.2 mm 6 mps 732 mmHg 84%
    06:00 +1°C° 1.2 mm 6 mps 732 mmHg 85%
    07:00 +1°C° 1.2 mm 6 mps 732 mmHg 86%
    08:00 0°C° 0.3 mm 7 mps 732 mmHg 85%
    09:00 0°C° 0.3 mm 8 mps 732 mmHg 85%
    10:00 -1°C° 0.3 mm 8 mps 733 mmHg 84%
    11:00 -1°C° 0.3 mm 8 mps 734 mmHg 83%
    12:00 -1°C° 0.3 mm 8 mps 734 mmHg 83%
    13:00 -1°C° 0.3 mm 8 mps 735 mmHg 83%
    14:00 -1°C° 0 mm 7 mps 736 mmHg 84%
    15:00 -1°C° 0 mm 5 mps 736 mmHg 85%
    16:00 -1°C° 0 mm 4 mps 737 mmHg 85%
    17:00 -1°C° 0 mm 4 mps 737 mmHg 85%
    18:00 -1°C° 0 mm 3 mps 738 mmHg 84%
    19:00 -1°C° 0 mm 3 mps 738 mmHg 84%
    20:00 -1°C° 0 mm 3 mps 738 mmHg 85%
    21:00 -1°C° 0 mm 3 mps 738 mmHg 86%
    22:00 -1°C° 0 mm 3 mps 738 mmHg 87%
    23:00 -1°C° 0 mm 3 mps 738 mmHg 87%

    16 December, Saturday

    Time Temperature Precipitation Wind Pressure Humidity
    00:00 -1°C° 0 mm 3 mps 738 mmHg 88%
    01:00 -1°C° 0 mm 3 mps 738 mmHg 89%
    02:00 -1°C° 0 mm 3 mps 738 mmHg 89%
    03:00 -1°C° 0 mm 3 mps 738 mmHg 89%
    04:00 -1°C° 0 mm 3 mps 738 mmHg 89%
    05:00 -1°C° 0.2 mm 3 mps 738 mmHg 89%
    06:00 -1°C° 0.2 mm 3 mps 738 mmHg 89%
    07:00 0°C° 0.2 mm 3 mps 739 mmHg 88%
    08:00 0°C° 0.1 mm 3 mps 739 mmHg 89%
    09:00 -1°C° 0.1 mm 4 mps 739 mmHg 90%
    10:00 -1°C° 0.1 mm 4 mps 740 mmHg 91%
    11:00 -1°C° 0 mm 4 mps 740 mmHg 90%
    12:00 0°C° 0 mm 4 mps 740 mmHg 89%
    13:00 0°C° 0 mm 5 mps 740 mmHg 88%
    14:00 0°C° 0.1 mm 4 mps 741 mmHg 89%
    15:00 -1°C° 0.1 mm 4 mps 741 mmHg 90%
    16:00 -1°C° 0.1 mm 4 mps 742 mmHg 91%
    17:00 -1°C° 0.1 mm 4 mps 742 mmHg 90%
    18:00 -1°C° 0.1 mm 4 mps 743 mmHg 89%
    19:00 -1°C° 0.1 mm 4 mps 743 mmHg 88%
    20:00 -1°C° 0 mm 4 mps 743 mmHg 88%
    21:00 -1°C° 0 mm 4 mps 744 mmHg 88%
    22:00 -1°C° 0 mm 4 mps 744 mmHg 88%
    23:00 -1°C° 0 mm 5 mps 744 mmHg 89%

    17 December, Sunday

    Time Temperature Precipitation Wind Pressure Humidity
    00:00 -2°C° 0 mm 5 mps 744 mmHg 89%
    01:00 -2°C° 0 mm 5 mps 744 mmHg 90%
    02:00 -2°C° 0 mm 5 mps 745 mmHg 89%
    03:00 -1°C° 0 mm 5 mps 745 mmHg 88%
    04:00 -1°C° 0 mm 5 mps 745 mmHg 87%
    05:00 -1°C° 0.1 mm 5 mps 745 mmHg 87%
    06:00 -1°C° 0.1 mm 5 mps 746 mmHg 87%
    07:00 -1°C° 0.1 mm 5 mps 746 mmHg 87%
    08:00 -1°C° 0.1 mm 5 mps 746 mmHg 86%
    09:00 -2°C° 0.1 mm 6 mps 747 mmHg 84%
    10:00 -2°C° 0.1 mm 6 mps 747 mmHg 83%
    11:00 -2°C° 0.1 mm 6 mps 748 mmHg 82%
    12:00 -2°C° 0.1 mm 6 mps 748 mmHg 80%
    13:00 -2°C° 0.1 mm 6 mps 748 mmHg 79%
    14:00 -1°C° 0.1 mm 5 mps 749 mmHg 80%
    15:00 -1°C° 0.1 mm 5 mps 749 mmHg 82%
    16:00 -2°C° 0.1 mm 5 mps 750 mmHg 84%
    17:00 -2°C° 0.1 mm 5 mps 750 mmHg 85%
    18:00 -2°C° 0.1 mm 5 mps 751 mmHg 86%
    19:00 -2°C° 0.1 mm 5 mps 751 mmHg 87%
    20:00 -2°C° 0 mm 5 mps 752 mmHg 88%
    21:00 -2°C° 0 mm 5 mps 752 mmHg 89%
    22:00 -2°C° 0 mm 5 mps 753 mmHg 90%
    23:00 -4°C° 0 mm 5 mps 753 mmHg 91%
    Show more